Simultaneous Nadir Overpasses (SNOs) Predictions

Prediction of SNOs between NPP and TERRA Satellite Orbit:

Table of predicted SNOs for the next 14.0 days since TLE Epoch: 1/25/2016
Index Date (NPP) Time (NPP) Lat,Lon (NPP) SZA (NPP ) Date (TERRA) Time (TERRA) Lat,Lon (TERRA) SZA (TERRA ) Distance(km) Time Diff (sec)
1 01/27/2016 09:50:22 -68.62,-148.81 92.89 01/27/2016 09:51:21 -68.63,-148.74 92.89 2.94 59
2 01/27/2016 10:41:06 68.48, 18.69 86.96 01/27/2016 10:40:49 68.47, 18.71 86.95 1.44 17
3 01/27/2016 11:31:38 -67.88,-173.23 93.67 01/27/2016 11:30:27 -67.91,-174.32 93.61 45.79 71
4 01/30/2016 02:07:12 -68.54, -32.92 93.67 01/30/2016 02:07:50 -68.55, -32.96 93.67 1.85 38
5 01/30/2016 02:57:57 68.46, 134.49 86.23 01/30/2016 02:57:17 68.44, 134.55 86.22 2.92 40
6 02/01/2016 17:33:32 69.12, -85.25 86.20 02/01/2016 17:34:42 69.01, -84.13 86.06 46.12 70
7 02/01/2016 18:24:04 -68.52, 82.88 94.44 02/01/2016 18:24:19 -68.52, 82.88 94.44 0.20 15
8 02/01/2016 19:14:48 68.38,-109.63 85.41 02/01/2016 19:13:46 68.41,-109.61 85.44 2.84 62
9 02/04/2016 09:50:15 68.62, 31.20 84.91 02/04/2016 09:51:17 68.63, 31.27 84.91 3.09 62
10 02/04/2016 10:40:56 -68.49,-161.31 95.24 02/04/2016 10:40:48 -68.47,-161.29 95.26 2.44 8
11 02/04/2016 11:31:32 67.93, 6.71 84.17 02/04/2016 11:30:21 68.02, 5.81 84.30 38.85 71
12 02/07/2016 02:07:06 68.55, 147.07 84.02 02/07/2016 02:07:46 68.58, 147.08 84.04 2.88 40
13 02/07/2016 02:57:47 -68.42, -45.44
